EW4713 Weather Reports


time (UTC)temp
C
wind
direction
speed
KPH
gust
KPH
rain 1hr
cm
rain 24hr
cm
rain mn
cm
humidity
%
barometer
mb
20260506113932 0 152 4.8 9.7 0.00 0.00 0.00 76 1015.1
20260506113430 0 127 3.2 9.7 0.00 0.00 0.00 77 1015.0
20260506112929 0 75 1.6 12.9 0.00 0.00 0.00 77 1014.9
20260506112429 0 90 3.2 12.9 0.00 0.00 0.00 76 1014.7
20260506111928 0 127 3.2 9.7 0.00 0.00 0.00 77 1014.8
20260506111430 0 90 4.8 9.7 0.00 0.00 0.00 76 1014.9
20260506110930 0 105 3.2 9.7 0.00 0.00 0.00 77 1014.7
20260506110431 0 80 3.2 8.0 0.00 0.00 0.00 76 1014.7
20260506105929 0 110 3.2 8.0 0.00 0.00 0.00 76 1014.7
20260506105429 0 151 0.0 6.4 0.00 0.00 0.00 76 1014.6
20260506104928 0 107 1.6 9.7 0.00 0.00 0.00 76 1014.7
20260506104429 0 103 1.6 9.7 0.00 0.00 0.00 76 1014.5
20260506103928 0 94 4.8 6.4 0.00 0.00 0.00 76 1014.7
20260506102929 0 109 0.0 6.4 0.00 0.00 0.00 76 1014.5
20260506102429 0 86 3.2 4.8 0.00 0.00 0.00 75 1014.6
20260506101928 0 103 3.2 6.4 0.00 0.00 0.00 75 1014.7
20260506101430 0 90 0.0 6.4 0.00 0.00 0.00 75 1014.6
20260506100431 0 90 0.0 4.8 0.00 0.00 0.00 75 1014.6
20260506095929 0 98 0.0 3.2 0.00 0.00 0.00 74 1014.7
20260506095429 0 90 0.0 6.4 0.00 0.00 0.00 74 1014.5
20260506094931 0 127 3.2 6.4 0.00 0.00 0.00 73 1014.6
20260506094430 0 159 3.2 6.4 0.00 0.00 0.00 73 1014.8
20260506093930 0 152 3.2 4.8 0.00 0.00 0.00 73 1014.5
20260506092929 0 112 3.2 4.8 0.00 0.00 0.00 73 1014.4
20260506092429 0 105 1.6 4.8 0.00 0.00 0.00 73 1014.5
20260506091930 0 139 3.2 4.8 0.00 0.00 0.00 72 1014.6
20260506091428 0 79 0.0 8.0 0.00 0.00 0.00 73 1014.6
20260506090928 0 77 0.0 8.0 0.00 0.00 0.00 72 1014.6
20260506085929 0 135 3.2 8.0 0.00 0.00 0.00 72 1014.4
20260506084927 0 135 3.2 8.0 0.00 0.00 0.00 71 1014.5
20260506084424 0 120 1.6 8.0 0.00 0.00 0.00 71 1014.4
20260506083925 0 143 3.2 6.4 0.00 0.00 0.00 71 1014.8
20260506082914 0 154 0.0 9.7 0.00 0.00 0.00 71 1014.6
20260506082414 0 152 3.2 9.7 0.00 0.00 0.00 71 1014.4
20260506081913 0 74 0.0 11.3 0.00 0.00 0.00 71 1014.3
20260506081412 0 164 1.6 11.3 0.00 0.00 0.00 70 1014.4
20260506080913 0 63 1.6 12.9 0.00 0.00 0.00 70 1014.4
20260506080412 0 114 0.0 12.9 0.00 0.00 0.00 69 1014.5
20260506073401 0 154 3.2 9.7 0.00 0.00 0.00 69 1014.4
20260506072901 0 82 0.0 4.8 0.00 0.00 0.00 69 1014.2
20260506072401 0 97 4.8 4.8 0.00 0.00 0.00 69 1014.5
20260506070401 0 160 4.8 4.8 0.00 0.00 0.00 69 1014.4
20260506062401 0 147 3.2 4.8 0.00 0.00 0.00 68 1014.6
20260506061901 0 150 4.8 4.8 0.00 0.00 0.00 67 1014.6
20260506061402 0 156 0.0 8.0 0.00 0.00 0.00 68 1014.7
20260506060901 0 120 3.2 8.0 0.00 0.00 0.00 68 1014.6
20260506060422 0 106 8.0 8.0 0.00 0.00 0.00 67 1014.8
20260506051401 0 127 0.0 8.0 0.00 0.00 0.00 67 1014.4
20260506050901 0 157 3.2 8.0 0.00 0.00 0.00 66 1014.3
20260506050402 0 158 3.2 6.4 0.00 0.00 0.00 66 1014.3
20260506044901 0 120 0.0 4.8 0.00 0.00 0.00 68 1014.2
20260506043900 0 152 3.2 8.0 0.00 0.00 0.00 66 1014.5
20260506043402 0 180 3.2 9.7 0.00 0.00 0.00 68 1014.4
20260506042902 0 165 3.2 9.7 0.00 0.00 0.00 67 1014.5
20260506042403 0 145 0.0 8.0 0.00 0.00 0.00 67 1014.4
20260506041901 0 209 1.6 9.7 0.00 0.00 0.00 66 1014.5
20260506041402 0 132 3.2 9.7 0.00 0.00 0.00 67 1014.5
20260506040902 0 164 1.6 8.0 0.00 0.00 0.00 67 1014.5
20260506040401 0 170 3.2 8.0 0.00 0.00 0.00 67 1014.3
20260506035900 1 180 1.6 8.0 0.00 0.00 0.00 68 1014.4
20260506035402 0 144 3.2 8.0 0.00 0.00 0.00 67 1014.4
20260506034903 1 142 3.2 8.0 0.00 0.00 0.00 68 1014.4
20260506034401 1 176 3.2 8.0 0.00 0.00 0.00 68 1014.4
20260506033901 1 147 3.2 6.4 0.00 0.00 0.00 69 1014.1
20260506033401 1 154 1.6 8.0 0.00 0.00 0.00 68 1014.4
20260506032900 1 106 0.0 9.7 0.00 0.00 0.00 69 1014.4
20260506032358 1 188 3.2 9.7 0.00 0.00 0.00 67 1014.5
20260506031857 1 180 0.0 12.9 0.00 0.00 0.00 67 1014.4
20260506031358 1 122 3.2 12.9 0.00 0.00 0.00 66 1014.1
20260506030857 1 160 0.0 12.9 0.00 0.00 0.00 67 1014.2
20260506030357 1 131 1.6 12.9 0.00 0.00 0.00 66 1014.3
20260506025858 1 180 1.6 8.0 0.00 0.00 0.00 66 1014.1
20260506024358 1 157 1.6 9.7 0.00 0.00 0.00 66 1014.0
20260506023856 1 147 3.2 11.3 0.00 0.00 0.00 66 1014.1
20260506023354 1 120 0.0 11.3 0.00 0.00 0.00 66 1013.9
20260506022855 1 99 3.2 8.0 0.00 0.00 0.00 66 1013.9
20260506022354 1 126 1.6 6.4 0.00 0.00 0.00 66 1013.5
20260506021854 1 170 3.2 4.8 0.00 0.00 0.00 66 1013.7
20260506021357 1 180 3.2 6.4 0.00 0.00 0.00 66 1013.5
20260506020855 1 146 3.2 6.4 0.00 0.00 0.00 66 1013.5
20260506020356 1 113 0.0 8.0 0.00 0.00 0.00 65 1013.5
20260506015355 1 180 3.2 6.4 0.00 0.00 0.00 64 1013.7
20260506014358 1 80 3.2 9.7 0.00 0.00 0.00 65 1013.4
20260506013854 1 175 0.0 9.7 0.00 0.00 0.00 65 1013.4
20260506013355 1 177 0.0 9.7 0.00 0.00 0.00 65 1013.4
20260506012356 1 148 4.8 8.0 0.00 0.00 0.00 65 1013.3
20260506011856 1 90 1.6 8.0 0.00 0.00 0.00 66 1013.1
20260506011353 1 177 3.2 8.0 0.00 0.00 0.00 65 1013.3
20260506010854 1 148 1.6 6.4 0.00 0.00 0.00 65 1013.2
20260506005353 1 157 3.2 8.0 0.00 0.00 0.00 64 1012.8
20260506004854 1 161 6.4 12.9 0.00 0.00 0.00 64 1013.1
20260506004349 1 150 3.2 14.5 0.00 0.00 0.00 64 1012.9
20260506003849 1 171 4.8 14.5 0.00 0.00 0.00 63 1013.0
20260506003350 2 154 3.2 12.9 0.00 0.00 0.00 63 1012.8
20260506002851 1 167 3.2 12.9 0.00 0.00 0.00 63 1012.9
20260506002350 2 131 4.8 11.3 0.00 0.00 0.00 63 1012.9
20260506001838 2 160 4.8 11.3 0.00 0.00 0.00 63 1012.9
20260506001336 2 184 3.2 11.3 0.00 0.00 0.00 64 1012.9
20260506000834 2 180 4.8 11.3 0.00 0.00 0.00 62 1012.7
20260506000334 2 146 3.2 9.7 0.00 0.00 0.00 63 1012.6
20260505235834 2 126 4.8 16.1 0.00 0.00 0.00 62 1012.9
20260505235332 2 158 6.4 16.1 0.00 0.00 0.00 64 1012.4
20260505234833 2 137 6.4 9.7 0.00 0.00 0.00 63 1012.5
20260505234332 2 113 3.2 9.7 0.00 0.00 0.00 63 1012.8
20260505233831 2 155 3.2 9.7 0.00 0.00 0.00 63 1012.3
20260505233331 2 117 4.8 11.3 0.00 0.00 0.00 62 1012.6
20260505232331 2 148 1.6 12.9 0.00 0.00 0.00 63 1012.4
20260505231832 2 145 4.8 11.3 0.00 0.00 0.00 62 1012.6
20260505231328 2 164 1.6 12.9 0.00 0.00 0.00 62 1012.5
20260505230828 2 126 4.8 12.9 0.00 0.00 0.00 62 1012.2
20260505230326 2 33 3.2 11.3 0.00 0.00 0.00 61 1012.3
20260505225837 3 99 4.8 11.3 0.00 0.00 0.00 60 1012.3
20260505225327 3 149 3.2 9.7 0.00 0.00 0.00 60 1012.3
20260505224327 3 156 4.8 9.7 0.00 0.00 0.00 59 1012.3
20260505223822 3 94 3.2 12.9 0.00 0.00 0.00 59 1012.1
20260505223322 3 173 4.8 16.1 0.00 0.00 0.00 58 1012.2
20260505222832 3 143 3.2 16.1 0.00 0.00 0.00 58 1012.1
20260505222323 3 153 6.4 9.7 0.00 0.00 0.00 59 1012.1
20260505221322 3 45 3.2 16.1 0.00 0.00 0.00 59 1012.1
20260505220824 3 142 3.2 20.9 0.00 0.00 0.00 58 1012.1
20260505220322 3 147 4.8 20.9 0.00 0.00 0.00 58 1012.2
20260505215820 3 48 4.8 12.9 0.00 0.00 0.00 59 1012.1
20260505215320 3 167 8.0 11.3 0.00 0.00 0.00 60 1012.2
20260505214321 3 80 3.2 11.3 0.00 0.00 0.00 60 1012.4
20260505213819 3 125 9.7 11.3 0.00 0.00 0.00 61 1012.1
20260505213320 2 86 3.2 11.3 0.00 0.00 0.00 62 1012.5
20260505212819 3 107 6.4 9.7 0.00 0.00 0.00 60 1012.3
20260505211819 3 105 4.8 11.3 0.00 0.00 0.00 60 1012.4
20260505211317 3 144 4.8 9.7 0.00 0.00 0.00 59 1012.3
20260505210818 2 144 6.4 22.5 0.00 0.00 0.00 59 1012.5
20260505210319 2 114 1.6 22.5 0.00 0.00 0.00 61 1012.3
20260505205816 2 152 8.0 17.7 0.00 0.00 0.00 61 1012.5
20260505205318 2 105 11.3 17.7 0.00 0.00 0.00 61 1012.3
20260505204817 2 105 11.3 17.7 0.00 0.00 0.00 60 1012.4
20260505204317 2 94 8.0 9.7 0.00 0.00 0.00 58 1012.2
20260505203810 3 148 1.6 16.1 0.00 0.00 0.00 58 1012.5
20260505203310 3 191 6.4 16.1 0.00 0.00 0.00 59 1012.4
20260505202810 2 131 9.7 16.1 0.00 0.00 0.00 58 1012.5
20260505202312 2 179 6.4 14.5 0.00 0.00 0.00 61 1012.5
20260505201811 2 161 6.4 12.9 0.00 0.00 0.00 60 1012.5
20260505201311 2 151 0.0 12.9 0.00 0.00 0.00 62 1012.3
20260505200809 2 156 8.0 12.9 0.00 0.00 0.00 61 1012.4
20260505200309 2 60 6.4 8.0 0.00 0.00 0.00 61 1012.4
20260505195808 2 161 4.8 11.3 0.00 0.00 0.00 59 1012.2
20260505195309 2 158 8.0 14.5 0.00 0.00 0.00 58 1012.3
20260505194801 2 139 6.4 14.5 0.00 0.00 0.00 60 1012.4
20260505194302 2 108 3.2 14.5 0.00 0.00 0.00 60 1012.3
20260505193803 2 111 6.4 16.1 0.00 0.00 0.00 62 1012.3
20260505192800 2 159 6.4 16.1 0.00 0.00 0.00 62 1012.3
20260505192301 2 125 0.0 14.5 0.00 0.00 0.00 62 1012.1
20260505191801 2 157 6.4 14.5 0.00 0.00 0.00 62 1012.1
20260505191302 2 107 9.7 14.5 0.00 0.00 0.00 61 1012.0
20260505190801 2 114 1.6 14.5 0.00 0.00 0.00 62 1012.0
20260505190301 2 120 3.2 14.5 0.00 0.00 0.00 63 1012.1
20260505185801 2 129 11.3 22.5 0.00 0.00 0.00 63 1011.7
20260505185301 1 123 1.6 22.5 0.00 0.00 0.00 62 1012.1
20260505184801 1 106 4.8 17.7 0.00 0.00 0.00 65 1012.0
20260505184301 1 144 9.7 17.7 0.00 0.00 0.00 64 1012.2
20260505183301 1 168 3.2 19.3 0.00 0.00 0.00 65 1012.1
20260505182802 1 129 4.8 19.3 0.00 0.00 0.00 65 1012.0
20260505182305 1 142 3.2 14.5 0.00 0.00 0.00 64 1011.8
20260505181800 1 61 8.0 14.5 0.00 0.00 0.00 64 1011.6
20260505181301 1 124 4.8 12.9 0.00 0.00 0.00 65 1011.6
20260505180801 1 193 3.2 12.9 0.00 0.00 0.00 62 1011.6
20260505180303 1 118 4.8 12.9 0.00 0.00 0.00 61 1011.7
20260505175801 1 135 3.2 12.9 0.00 0.00 0.00 61 1011.7
20260505175301 2 117 4.8 12.9 0.00 0.00 0.00 62 1011.6
20260505174802 1 192 4.8 9.7 0.00 0.00 0.00 63 1011.7
20260505174303 1 186 4.8 11.3 0.00 0.00 0.00 64 1011.5
20260505173301 1 154 3.2 14.5 0.00 0.00 0.00 66 1011.5
20260505172802 1 174 4.8 14.5 0.00 0.00 0.00 64 1011.4
20260505171801 1 147 4.8 12.9 0.00 0.00 0.00 65 1011.3
20260505171259 1 135 4.8 12.9 0.00 0.00 0.00 65 1011.4
20260505170800 1 154 4.8 14.5 0.00 0.00 0.00 64 1011.2
20260505170258 1 94 3.2 14.5 0.00 0.00 0.00 66 1010.9
20260505165755 1 155 3.2 16.1 0.00 0.00 0.00 66 1010.8
20260505165254 1 110 4.8 16.1 0.00 0.00 0.00 66 1010.8
20260505164755 1 154 4.8 16.1 0.00 0.00 0.00 65 1010.9
20260505163751 0 150 4.8 11.3 0.00 0.00 0.00 72 1010.5
20260505162746 0 109 1.6 11.3 0.00 0.00 0.00 73 1010.6
20260505162246 0 156 3.2 12.9 0.00 0.00 0.00 74 1011.0
20260505161748 0 161 6.4 14.5 0.00 0.00 0.00 76 1010.7
20260505161248 0 148 4.8 14.5 0.00 0.00 0.00 77 1010.7
20260505160747 0 99 6.4 11.3 0.00 0.00 0.00 78 1010.9
20260505153230 0 133 4.8 12.9 0.00 0.00 0.00 71 1010.5
20260505152732 0 99 3.2 9.7 0.00 0.00 0.00 70 1010.3
20260505152229 0 90 3.2 11.3 0.00 0.00 0.00 70 1010.1
20260505151230 0 135 3.2 11.3 0.00 0.00 0.00 69 1010.0
20260505150731 0 197 3.2 11.3 0.00 0.00 0.00 69 1010.0
20260505140229 0 95 3.2 9.7 0.00 0.00 0.00 72 1009.7
20260505130214 -1 221 0.0 16.1 0.00 0.00 0.00 78 1009.1
20260505124715 -1 144 3.2 12.9 0.00 0.00 0.00 79 1008.6
20260505123714 -1 68 4.8 12.9 0.00 0.00 0.00 80 1008.6
20260505123213 -1 156 6.4 9.7 0.00 0.00 0.00 78 1008.5
20260505122714 -1 86 3.2 9.7 0.00 0.00 0.00 78 1008.8
20260505122231 -1 165 3.2 11.3 0.00 0.00 0.00 78 1008.5
20260505121715 -1 130 4.8 11.3 0.00 0.00 0.00 78 1008.6
20260505121213 -1 112 3.2 11.3 0.00 0.00 0.00 79 1008.3
20260505120714 -1 109 4.8 11.3 0.00 0.00 0.00 77 1008.5
20260505120212 -1 180 3.2 12.9 0.00 0.00 0.00 77 1008.3
20260505115715 -1 175 1.6 12.9 0.00 0.00 0.00 77 1008.4